Regional Weather Roundup
Issued by NWS

Home | Current Version | Previous Version | Graphics & Text | Print | Product List | Glossary On
Versions: 1 2 3 4 5 6 7 8 9 10 11 12 13 14 15 16 17 18 19 20 21 22 23 24 25 26 27 28 29 30 31 32 33 34 35 36 37 38 39 40 41 42 43 44 45 46 47 48 49 50
000
ASUS45 KCYS 302110
RWRWY

WYOMING REGIONAL WEATHER ROUNDUP
NATIONAL WEATHER SERVICE CHEYENNE WY
300 PM MDT TUE JUN 30 2015

NOTE:  "FAIR" INDICATES FEW OR NO CLOUDS BELOW 12,000 FEET
WITH NO SIGNIFICANT WEATHER AND/OR OBSTRUCTIONS TO VISIBILITY.

WYZ001-302200-
YELLOWSTONE NATIONAL PARK

CITY           SKY/WX    TMP DP  RH WIND       PRES   REMARKS
LK YELLOWSTONE   N/A     77  38  24 W8G20     30.32F
W YELLOWSTONE  NOT AVBL

$$
WYZ002>013-054>058-071-098>099-302200-
NORTHERN WYOMING

CITY           SKY/WX    TMP DP  RH WIND       PRES   REMARKS
JACKSON        MOSUNNY   82  48  30 SW5       30.21F
CODY           PTSUNNY   81  59  47 SW9       30.09F
GREYBULL       FAIR      92  47  21 N10G18    29.95F
WORLAND        FAIR      88  52  29 N7        29.98F
SHERIDAN       FAIR      91  52  26 NW17G30   29.98F
BUFFALO        FAIR      77  62  59 NW8       30.08S
GILLETTE       FAIR      87  55  33 NW16      30.00F
HULETT         FAIR      84  54  34 NW10G20   30.01R
NEWCASTLE      FAIR      82  52  34 N9        29.99F

$$
WYZ014>020-022>026-101>103-302200-
CENTRAL WYOMING

CITY           SKY/WX    TMP DP  RH WIND       PRES   REMARKS
BIG PINEY      FAIR      89  40  17 W15G23    30.25F
PINEDALE       FAIR      86  43  22 NW14G22   30.26F
DUBOIS         FAIR      82  41  23 N16G24    30.23F
LANDER         FAIR      90  50  25 N6        30.07F
RIVERTON       TSTM      77  56  48 W6G29     30.09S
CASPER         FAIR      91  46  21 N8        30.07F
DOUGLAS        FAIR      92  51  24 N12G21    30.05F

$$
WYZ021-027>030-104>119-302200-
SOUTHERN WYOMING

CITY           SKY/WX    TMP DP  RH WIND       PRES   REMARKS
EVANSTON       PTSUNNY   85  42  22 NW16G22   30.26F
KEMMERER       FAIR      88  41  19 NW16G28   30.28F
FORT BRIDGER   CLEAR     88  41  19 NW14G20   30.27F
ROCK SPRINGS   FAIR      91  43  18 W16G24    30.19F
DIXON          FAIR      91  39  16 W10       30.19F
RAWLINS        FAIR      91  38  15 W15G26    30.17F
SARATOGA       MOCLDY    88  41  19 W17G23    30.21S
LARAMIE        PTSUNNY   81  41  24 N13       30.23F
CHEYENNE       CLOUDY    84  43  23 NW8       30.15F
TORRINGTON     FAIR      92  49  22 W8        29.95F
PINE BLUFFS    FAIR      88  43  20 CALM      30.06F

$$



USA.gov is the U.S. government's official web portal to all federal, state and local government web resources and services.